User: anonymous   Login
Location: Deer Lake
(49.1830°N, 57.4330°W)
Time: 08:32:49
(UTC-03:-30)
Language:

Cosmos 1707 - Orbit

View from above orbital plane
View from above orbital plane
View from above satellite
View from above satellite

Ground track
Ground track

The orbit data is extracted from the following two-line orbital elements,

1 16326U 85113A   14327.02925601  .00005809  00000-0  36065-3 0   657
2 16326 082.5217 047.0633 0009770 292.7396 067.2800 15.09484114575736
Epoch (UTC): 23 November 2014 00:42:07
Eccentricity: 0.0009770
inclination: 82.5217°
perigee height: 531 km
apogee height: 544 km
right ascension of ascending node: 47.0633°
argument of perigee: 292.7396°
revolutions per day: 15.09484114
mean anomaly at epoch: 67.2800°
orbit number at epoch: 57573

The dashed part of the orbit path shows where the satellite is in the earth's shadow,  

DLR